Location: Gleizolles
(44.4833°N, 6.7667°E)
Time: 13:55:14
(UTC+00:00)

N. Korean satellite - Visible Passes

Search period start: 28 February 2021 00:00
Search period end: 10 March 2021 00:00
Orbit: 451 x 503 km, 97.2° (Epoch: 27 February)

Date Brightness Start Highest point End Pass type
(mag) Time Alt. Az. Time Alt. Az. Time Alt. Az.
28 Feb 6.4 05:12:44 10° N 05:16:14 69° WNW 05:19:46 10° SSW visible
01 Mar 7.4 04:46:04 10° NNE 04:49:30 51° E 04:52:58 10° S visible
02 Mar 9.0 04:19:46 10° NE 04:22:40 24° E 04:25:37 10° SSE visible
03 Mar 9.9 03:54:25 10° ENE 03:55:45 12° E 03:57:05 10° ESE visible
03 Mar 6.8 05:25:53 10° N 05:29:18 46° WNW 05:32:43 10° SSW visible
04 Mar 6.7 04:59:02 10° NNE 05:02:35 78° E 05:06:11 10° S visible
05 Mar 8.3 04:32:31 10° NNE 04:35:48 34° E 04:39:06 10° SSE visible
06 Mar 9.6 04:06:31 10° NE 04:08:54 17° E 04:11:18 10° SE visible
07 Mar 6.5 05:12:04 10° N 05:15:37 70° WNW 05:19:12 10° SSW visible
08 Mar 7.5 04:45:21 10° NNE 04:48:51 51° E 04:52:24 10° S visible
09 Mar 9.1 04:19:02 10° NE 04:22:00 24° E 04:24:59 10° SSE visible
